| time (UTC) | temp F | wind direction | speed knots | gust knots | rain 1hr in | rain 24hr in | rain mn in | humidity % | barometer mb |
| 20260507143056 | 56 | 0 | 0.0 | 0.0 | 0.00 | 0.00 | 0.00 | 90 | 1022.8 |
| 20260507141604 | 54 | 0 | 0.0 | 0.0 | 0.00 | 0.00 | 0.00 | 93 | 1022.6 |
| 20260507140042 | 52 | 0 | 0.0 | 0.0 | 0.00 | 0.00 | 0.00 | 93 | 1022.5 |
| 20260507134540 | 52 | 0 | 0.0 | 0.0 | 0.00 | 0.00 | 0.00 | 93 | 1022.2 |
| 20260507133041 | 51 | 0 | 0.0 | 0.0 | 0.00 | 0.00 | 0.00 | 93 | 1022.0 |
| 20260507131546 | 51 | 0 | 0.0 | 0.0 | 0.00 | 0.00 | 0.00 | 93 | 1021.9 |
| 20260507130042 | 51 | 0 | 0.0 | 0.0 | 0.00 | 0.00 | 0.00 | 93 | 1021.9 |
| 20260507124542 | 51 | 0 | 0.0 | 0.0 | 0.00 | 0.00 | 0.00 | 92 | 1021.9 |
| 20260507123043 | 51 | 0 | 0.0 | 0.0 | 0.00 | 0.00 | 0.00 | 92 | 1021.8 |
| 20260507121543 | 51 | 0 | 0.0 | 0.0 | 0.00 | 0.00 | 0.00 | 92 | 1021.7 |
| 20260507120036 | 52 | 0 | 0.0 | 0.0 | 0.00 | 0.00 | 0.00 | 92 | 1021.9 |
| 20260507114541 | 52 | 0 | 0.0 | 0.0 | 0.00 | 0.00 | 0.00 | 92 | 1021.9 |
| 20260507113040 | 52 | 0 | 0.0 | 0.0 | 0.00 | 0.00 | 0.00 | 92 | 1022.0 |
| 20260507111540 | 52 | 0 | 0.0 | 0.0 | 0.00 | 0.00 | 0.00 | 92 | 1022.2 |
| 20260507110037 | 52 | 0 | 0.0 | 0.0 | 0.00 | 0.00 | 0.00 | 91 | 1022.3 |
| 20260507104546 | 53 | 0 | 0.0 | 0.9 | 0.00 | 0.00 | 0.00 | 91 | 1022.3 |
| 20260507103043 | 53 | 0 | 0.0 | 0.9 | 0.00 | 0.00 | 0.00 | 91 | 1022.3 |
| 20260507101542 | 53 | 0 | 0.0 | 0.0 | 0.00 | 0.00 | 0.00 | 90 | 1022.3 |
| 20260507100052 | 53 | 0 | 0.0 | 0.0 | 0.00 | 0.00 | 0.00 | 90 | 1022.3 |
| 20260507094540 | 54 | 0 | 0.0 | 0.0 | 0.00 | 0.00 | 0.00 | 90 | 1022.4 |
| 20260507093037 | 54 | 0 | 0.0 | 1.7 | 0.00 | 0.00 | 0.00 | 90 | 1022.5 |
| 20260507091543 | 54 | 0 | 0.0 | 0.0 | 0.00 | 0.00 | 0.00 | 90 | 1022.7 |
| 20260507090049 | 54 | 0 | 0.0 | 1.7 | 0.00 | 0.00 | 0.00 | 90 | 1023.0 |
| 20260507084549 | 54 | 0 | 0.0 | 0.0 | 0.00 | 0.00 | 0.00 | 90 | 1023.1 |
| 20260507083039 | 54 | 0 | 0.0 | 0.0 | 0.00 | 0.00 | 0.00 | 90 | 1023.2 |
| 20260507081545 | 54 | 0 | 0.0 | 0.0 | 0.00 | 0.00 | 0.00 | 89 | 1023.5 |
| 20260507080041 | 55 | 0 | 0.0 | 0.0 | 0.00 | 0.00 | 0.00 | 88 | 1023.5 |
| 20260507074541 | 55 | 0 | 0.0 | 0.0 | 0.00 | 0.00 | 0.00 | 88 | 1023.3 |
| 20260507073040 | 55 | 0 | 0.0 | 0.0 | 0.00 | 0.00 | 0.00 | 87 | 1023.2 |
| 20260507071539 | 56 | 0 | 0.0 | 0.0 | 0.00 | 0.00 | 0.00 | 88 | 1023.4 |
| 20260507070043 | 56 | 0 | 0.0 | 0.0 | 0.00 | 0.00 | 0.00 | 87 | 1023.5 |
| 20260507064613 | 56 | 0 | 0.0 | 0.0 | 0.00 | 0.00 | 0.00 | 86 | 1023.5 |
| 20260507063037 | 56 | 0 | 0.0 | 0.0 | 0.00 | 0.00 | 0.00 | 86 | 1023.5 |
| 20260507061540 | 57 | 0 | 0.0 | 0.0 | 0.00 | 0.00 | 0.00 | 85 | 1023.5 |
| 20260507060108 | 57 | 0 | 0.0 | 0.0 | 0.00 | 0.00 | 0.00 | 85 | 1023.5 |
| 20260507054551 | 57 | 0 | 0.0 | 0.0 | 0.00 | 0.00 | 0.00 | 84 | 1023.4 |
| 20260507053044 | 58 | 0 | 0.0 | 0.0 | 0.00 | 0.00 | 0.00 | 83 | 1023.2 |
| 20260507051553 | 58 | 0 | 0.0 | 0.0 | 0.00 | 0.00 | 0.00 | 82 | 1023.2 |
| 20260507050046 | 58 | 0 | 0.0 | 0.0 | 0.00 | 0.00 | 0.00 | 82 | 1023.3 |
| 20260507044539 | 59 | 0 | 0.0 | 0.0 | 0.00 | 0.00 | 0.00 | 81 | 1023.4 |
| 20260507043041 | 59 | 0 | 0.0 | 0.0 | 0.00 | 0.00 | 0.00 | 80 | 1023.4 |
| 20260507041537 | 60 | 0 | 0.0 | 0.0 | 0.00 | 0.00 | 0.00 | 79 | 1023.4 |
| 20260507040042 | 60 | 0 | 0.0 | 1.7 | 0.00 | 0.00 | 0.00 | 78 | 1023.2 |
| 20260507034538 | 61 | 0 | 0.0 | 1.7 | 0.00 | 0.00 | 0.00 | 78 | 1023.0 |
| 20260507033038 | 61 | 0 | 0.0 | 0.0 | 0.00 | 0.00 | 0.00 | 77 | 1023.0 |
| 20260507031538 | 62 | 0 | 0.0 | 1.7 | 0.00 | 0.00 | 0.00 | 76 | 1022.9 |
| 20260507030040 | 62 | 0 | 0.0 | 1.7 | 0.00 | 0.00 | 0.00 | 76 | 1022.9 |
| 20260507024544 | 63 | 0 | 0.0 | 1.7 | 0.00 | 0.00 | 0.00 | 75 | 1022.6 |
| 20260507023043 | 64 | 0 | 0.0 | 3.5 | 0.00 | 0.00 | 0.00 | 74 | 1022.6 |
| 20260507021543 | 65 | 148 | 0.0 | 3.5 | 0.00 | 0.00 | 0.00 | 72 | 1022.5 |
| 20260507020044 | 66 | 98 | 0.9 | 3.5 | 0.00 | 0.00 | 0.00 | 70 | 1022.3 |
| 20260507014547 | 67 | 94 | 0.9 | 4.3 | 0.00 | 0.00 | 0.00 | 66 | 1022.2 |
| 20260507013041 | 68 | 121 | 0.9 | 4.3 | 0.00 | 0.00 | 0.00 | 64 | 1022.4 |
| 20260507011541 | 69 | 92 | 1.7 | 5.2 | 0.00 | 0.00 | 0.00 | 65 | 1022.3 |
| 20260507010058 | 69 | 78 | 1.7 | 6.1 | 0.00 | 0.00 | 0.00 | 64 | 1022.3 |
| 20260507004537 | 70 | 99 | 1.7 | 6.1 | 0.00 | 0.00 | 0.00 | 63 | 1022.1 |
| 20260507003039 | 71 | 87 | 1.7 | 4.3 | 0.00 | 0.00 | 0.00 | 62 | 1022.2 |
| 20260507001537 | 71 | 102 | 1.7 | 8.7 | 0.00 | 0.00 | 0.00 | 61 | 1022.1 |
| 20260507000039 | 72 | 119 | 0.9 | 6.1 | 0.00 | 0.00 | 0.00 | 56 | 1021.8 |
| 20260506234538 | 72 | 103 | 2.6 | 8.7 | 0.00 | 0.00 | 0.00 | 56 | 1022.0 |
| 20260506233040 | 73 | 115 | 0.9 | 8.7 | 0.00 | 0.00 | 0.00 | 55 | 1021.9 |
| 20260506231551 | 73 | 149 | 1.7 | 6.1 | 0.00 | 0.00 | 0.00 | 52 | 1021.9 |
| 20260506230052 | 73 | 148 | 1.7 | 6.1 | 0.00 | 0.00 | 0.00 | 52 | 1022.0 |
| 20260506224543 | 73 | 101 | 0.9 | 7.0 | 0.00 | 0.00 | 0.00 | 54 | 1022.2 |
| 20260506223038 | 73 | 100 | 2.6 | 6.1 | 0.00 | 0.00 | 0.00 | 54 | 1022.5 |
| 20260506221541 | 73 | 116 | 2.6 | 7.8 | 0.00 | 0.00 | 0.00 | 54 | 1022.5 |
| 20260506220050 | 73 | 71 | 2.6 | 7.8 | 0.00 | 0.00 | 0.00 | 57 | 1022.7 |
| 20260506214540 | 73 | 153 | 1.7 | 6.1 | 0.00 | 0.00 | 0.00 | 60 | 1022.8 |
| 20260506213039 | 72 | 65 | 2.6 | 7.0 | 0.00 | 0.00 | 0.00 | 61 | 1023.0 |
| 20260506211544 | 73 | 135 | 1.7 | 7.8 | 0.00 | 0.00 | 0.00 | 62 | 1023.2 |
| 20260506210052 | 72 | 97 | 1.7 | 6.1 | 0.00 | 0.00 | 0.00 | 62 | 1023.2 |
| 20260506204541 | 72 | 126 | 1.7 | 6.1 | 0.00 | 0.00 | 0.00 | 62 | 1023.3 |
| 20260506203039 | 72 | 178 | 1.7 | 6.1 | 0.00 | 0.00 | 0.00 | 63 | 1023.5 |
| 20260506201542 | 71 | 17 | 1.7 | 7.0 | 0.00 | 0.00 | 0.00 | 67 | 1023.7 |
| 20260506200039 | 71 | 360 | 2.6 | 7.8 | 0.00 | 0.00 | 0.00 | 65 | 1023.8 |
| 20260506194540 | 70 | 38 | 1.7 | 8.7 | 0.00 | 0.00 | 0.00 | 66 | 1024.0 |
| 20260506193038 | 70 | 114 | 2.6 | 8.7 | 0.00 | 0.00 | 0.00 | 68 | 1024.2 |
| 20260506191538 | 69 | 30 | 4.3 | 9.6 | 0.00 | 0.00 | 0.00 | 68 | 1024.4 |
| 20260506190036 | 69 | 59 | 2.6 | 7.8 | 0.00 | 0.00 | 0.00 | 70 | 1024.6 |
| 20260506184556 | 69 | 96 | 1.7 | 7.8 | 0.00 | 0.00 | 0.00 | 69 | 1024.6 |
| 20260506183041 | 68 | 22 | 3.5 | 7.8 | 0.00 | 0.00 | 0.00 | 70 | 1024.6 |
| 20260506181540 | 68 | 47 | 2.6 | 9.6 | 0.00 | 0.00 | 0.00 | 70 | 1024.8 |
| 20260506180047 | 67 | 94 | 1.7 | 7.8 | 0.00 | 0.00 | 0.00 | 70 | 1024.7 |
| 20260506174537 | 67 | 38 | 0.9 | 6.1 | 0.00 | 0.00 | 0.00 | 69 | 1024.7 |
| 20260506173047 | 68 | 29 | 2.6 | 5.2 | 0.00 | 0.00 | 0.00 | 68 | 1024.8 |
| 20260506171554 | 67 | 43 | 1.7 | 5.2 | 0.00 | 0.00 | 0.00 | 67 | 1024.8 |
| 20260506170043 | 66 | 77 | 1.7 | 7.0 | 0.00 | 0.00 | 0.00 | 69 | 1024.8 |
| 20260506164546 | 65 | 0 | 1.7 | 5.2 | 0.00 | 0.00 | 0.00 | 71 | 1024.9 |
| 20260506163045 | 64 | 33 | 0.0 | 3.5 | 0.00 | 0.00 | 0.00 | 71 | 1025.0 |
| 20260506161546 | 64 | 0 | 0.9 | 3.5 | 0.00 | 0.00 | 0.00 | 73 | 1025.0 |
| 20260506160057 | 63 | 26 | 0.9 | 6.1 | 0.00 | 0.00 | 0.00 | 75 | 1025.1 |
| 20260506154542 | 63 | 0 | 0.9 | 3.5 | 0.00 | 0.00 | 0.00 | 76 | 1025.0 |
| 20260506153039 | 62 | 13 | 0.9 | 3.5 | 0.00 | 0.00 | 0.00 | 76 | 1024.8 |
| 20260506151545 | 62 | 0 | 0.9 | 2.6 | 0.00 | 0.00 | 0.00 | 75 | 1024.8 |
| 20260506150053 | 61 | 345 | 0.0 | 2.6 | 0.00 | 0.00 | 0.00 | 75 | 1024.8 |
| 20260506144557 | 59 | 217 | 0.0 | 1.7 | 0.00 | 0.00 | 0.00 | 76 | 1024.7 |